DLH4WN EDDV-EHRD

Flight info

Callsign DLH4WN
Flight time 0h 39m
Altitude 32000
Route VAXEV2G VAXEV Z718 OSNAD L980 RKN
Aircraft A320/M-SDE3FGHIRWY/LB1

Departure

Time 2026-05-07 15:50
Airport Hannover Airport (EDDV)

Arrival

Time 2026-05-07 16:29
Airport Rotterdam The Hague Airport (EHRD)
Time Latitude Longitude Altitude Speed Heading
2026-05-07 15:17 52.45838 9.69461 179 ft 0 kts 22°
2026-05-07 15:41 52.45835 9.69460 178 ft 2 kts 22°
2026-05-07 15:42 52.45820 9.69449 178 ft 2 kts 22°
2026-05-07 15:42 52.45805 9.69438 178 ft 2 kts 26°
2026-05-07 15:42 52.45791 9.69425 178 ft 2 kts 38°
2026-05-07 15:42 52.45778 9.69406 178 ft 2 kts 97°
2026-05-07 15:43 52.45778 9.69380 178 ft 2 kts 11°
2026-05-07 15:43 52.45767 9.69377 178 ft 2 kts 11°
2026-05-07 15:43 52.45757 9.69389 178 ft 2 kts 255°
2026-05-07 15:43 52.45758 9.69407 178 ft 1 kts 278°
2026-05-07 15:45 52.45758 9.69406 178 ft 2 kts 275°
2026-05-07 15:45 52.45759 9.69349 178 ft 6 kts 272°
2026-05-07 15:45 52.45761 9.69267 178 ft 7 kts 270°
2026-05-07 15:46 52.45656 9.69137 178 ft 10 kts 203°
2026-05-07 15:46 52.45628 9.69049 179 ft 9 kts 265°
2026-05-07 15:46 52.45628 9.68952 179 ft 8 kts 271°
2026-05-07 15:47 52.45629 9.68850 179 ft 9 kts 271°
2026-05-07 15:47 52.45633 9.68721 179 ft 17 kts 272°
2026-05-07 15:47 52.45639 9.68507 179 ft 19 kts 272°
2026-05-07 15:47 52.45645 9.68296 179 ft 18 kts 273°
2026-05-07 15:48 52.45651 9.68107 179 ft 16 kts 272°
2026-05-07 15:48 52.45655 9.67939 179 ft 14 kts 272°
2026-05-07 15:48 52.45649 9.67795 179 ft 11 kts 250°
2026-05-07 15:48 52.45600 9.67710 179 ft 10 kts 205°
2026-05-07 15:49 52.45527 9.67722 183 ft 9 kts 147°
2026-05-07 15:49 52.45492 9.67845 183 ft 18 kts 96°
2026-05-07 15:49 52.45478 9.68360 181 ft 81 kts 92°
2026-05-07 15:49 52.45441 9.69612 195 ft 139 kts 93°
2026-05-07 15:50 52.45338 9.71284 473 ft 161 kts 95°
2026-05-07 15:50 52.45271 9.73099 1317 ft 158 kts 91°
2026-05-07 15:50 52.45260 9.74949 1848 ft 170 kts 81°
2026-05-07 15:50 52.45858 9.76715 2125 ft 194 kts 40°
2026-05-07 15:51 52.47185 9.77441 2583 ft 214 kts 359°
2026-05-07 15:51 52.48662 9.77140 3467 ft 214 kts 355°
2026-05-07 15:51 52.50084 9.76317 4268 ft 224 kts 328°
2026-05-07 15:51 52.51165 9.74286 4789 ft 250 kts 300°
2026-05-07 15:52 52.51966 9.71648 5237 ft 272 kts 297°
2026-05-07 15:52 52.52414 9.68560 6041 ft 282 kts 269°
2026-05-07 15:52 52.51978 9.65468 6929 ft 284 kts 249°
2026-05-07 15:52 52.51275 9.62424 7836 ft 286 kts 249°
2026-05-07 15:53 52.50562 9.59318 8734 ft 288 kts 249°
2026-05-07 15:53 52.49860 9.56231 9655 ft 290 kts 250°
2026-05-07 15:53 52.49158 9.53126 10425 ft 295 kts 250°
2026-05-07 15:53 52.48417 9.49841 10701 ft 319 kts 250°
2026-05-07 15:54 52.47620 9.46306 11066 ft 337 kts 250°
2026-05-07 15:54 52.46802 9.42675 11739 ft 343 kts 250°
2026-05-07 15:54 52.45973 9.39000 12501 ft 346 kts 250°
2026-05-07 15:54 52.45127 9.35272 13258 ft 349 kts 250°
2026-05-07 15:55 52.44275 9.31525 13988 ft 353 kts 250°
2026-05-07 15:55 52.43428 9.27797 14641 ft 355 kts 250°
2026-05-07 15:55 52.42548 9.23932 15310 ft 358 kts 250°
2026-05-07 15:55 52.41676 9.20105 15979 ft 361 kts 250°
2026-05-07 15:56 52.40790 9.16234 16642 ft 363 kts 250°
2026-05-07 15:56 52.39898 9.12352 17284 ft 366 kts 250°
2026-05-07 15:56 52.38997 9.08440 17925 ft 369 kts 250°
2026-05-07 15:56 52.38086 9.04497 18522 ft 372 kts 250°
2026-05-07 15:57 52.37166 9.00509 19062 ft 375 kts 249°
2026-05-07 15:57 52.36248 8.96528 19607 ft 377 kts 249°
2026-05-07 15:57 52.35315 8.92485 20147 ft 380 kts 249°
2026-05-07 15:57 52.34376 8.88421 20679 ft 382 kts 249°
2026-05-07 15:58 52.33431 8.84338 21208 ft 385 kts 249°
2026-05-07 15:58 52.32478 8.80244 21734 ft 387 kts 249°
2026-05-07 15:58 52.31508 8.76083 21984 ft 397 kts 249°
2026-05-07 15:58 52.30509 8.71810 22136 ft 408 kts 249°
2026-05-07 15:59 52.29485 8.67438 22301 ft 418 kts 249°
2026-05-07 15:59 52.28435 8.62964 22645 ft 422 kts 249°
2026-05-07 15:59 52.27384 8.58486 23044 ft 425 kts 249°
2026-05-07 15:59 52.26311 8.53970 23473 ft 427 kts 248°
2026-05-07 16:00 52.25195 8.49391 23856 ft 430 kts 248°
2026-05-07 16:00 52.24067 8.44843 24216 ft 432 kts 248°
2026-05-07 16:00 52.22922 8.40258 24571 ft 434 kts 248°
2026-05-07 16:00 52.21773 8.35656 24911 ft 436 kts 248°
2026-05-07 16:01 52.20691 8.31034 25243 ft 438 kts 252°
2026-05-07 16:01 52.20006 8.26183 25561 ft 441 kts 261°
2026-05-07 16:01 52.19758 8.21207 25883 ft 443 kts 266°
2026-05-07 16:01 52.19587 8.16171 26190 ft 445 kts 266°
2026-05-07 16:02 52.19402 8.11124 26500 ft 447 kts 266°
2026-05-07 16:02 52.19206 8.06077 26803 ft 449 kts 266°
2026-05-07 16:02 52.19004 8.00995 27112 ft 450 kts 266°
2026-05-07 16:02 52.18802 7.95890 27417 ft 452 kts 266°
2026-05-07 16:03 52.18601 7.90792 27836 ft 451 kts 266°
2026-05-07 16:03 52.18397 7.85679 28280 ft 449 kts 266°
2026-05-07 16:03 52.18191 7.80619 28700 ft 448 kts 265°
2026-05-07 16:03 52.17984 7.75549 29121 ft 447 kts 266°
2026-05-07 16:04 52.17782 7.70504 29545 ft 447 kts 266°
2026-05-07 16:04 52.17581 7.65461 29964 ft 446 kts 266°
2026-05-07 16:04 52.17370 7.60418 30345 ft 445 kts 266°
2026-05-07 16:04 52.17147 7.55406 30693 ft 445 kts 265°
2026-05-07 16:05 52.16913 7.50382 31027 ft 444 kts 265°
2026-05-07 16:05 52.16676 7.45368 31372 ft 444 kts 265°
2026-05-07 16:05 52.16437 7.40360 31724 ft 443 kts 265°
2026-05-07 16:06 52.15957 7.30295 31369 ft 447 kts 265°
2026-05-07 16:06 52.15715 7.25243 30350 ft 451 kts 265°
2026-05-07 16:06 52.15465 7.20065 29462 ft 452 kts 265°
2026-05-07 16:06 52.15214 7.14954 28839 ft 450 kts 265°
2026-05-07 16:07 52.14961 7.09835 27398 ft 459 kts 265°
2026-05-07 16:07 52.14700 7.04629 26070 ft 466 kts 265°
2026-05-07 16:07 52.14434 6.99347 24837 ft 470 kts 265°
2026-05-07 16:07 52.14166 6.94029 23692 ft 472 kts 265°
2026-05-07 16:08 52.13901 6.88791 22462 ft 458 kts 265°
2026-05-07 16:08 52.13643 6.83658 21383 ft 452 kts 265°
2026-05-07 16:08 52.13617 6.78607 20612 ft 444 kts 274°
2026-05-07 16:08 52.13985 6.73653 19908 ft 440 kts 275°
2026-05-07 16:09 52.13755 6.68532 19189 ft 434 kts 256°
2026-05-07 16:09 52.12968 6.63811 18683 ft 432 kts 255°
2026-05-07 16:09 52.12448 6.60679 18531 ft 434 kts 255°
2026-05-07 16:09 52.11439 6.54336 18192 ft 432 kts 256°
2026-05-07 16:10 52.10958 6.51198 18007 ft 431 kts 256°
2026-05-07 16:10 52.10246 6.46481 17739 ft 429 kts 256°
2026-05-07 16:10 52.09545 6.41798 17455 ft 427 kts 256°
2026-05-07 16:10 52.08838 6.37112 17158 ft 425 kts 256°
2026-05-07 16:11 52.08101 6.32263 16876 ft 423 kts 256°
2026-05-07 16:11 52.07388 6.27627 16608 ft 422 kts 256°
2026-05-07 16:11 52.06673 6.23005 16356 ft 420 kts 256°
2026-05-07 16:11 52.05959 6.18411 16099 ft 419 kts 256°
2026-05-07 16:12 52.05253 6.13878 15846 ft 417 kts 256°
2026-05-07 16:12 52.04541 6.09282 15590 ft 416 kts 256°
2026-05-07 16:12 52.03836 6.04740 15342 ft 414 kts 256°
2026-05-07 16:12 52.03128 6.00213 15092 ft 413 kts 256°
2026-05-07 16:13 52.02423 5.95704 14845 ft 411 kts 256°
2026-05-07 16:13 52.01719 5.91210 14603 ft 410 kts 256°
2026-05-07 16:13 52.01017 5.86749 14361 ft 408 kts 256°
2026-05-07 16:13 52.00310 5.82291 14122 ft 407 kts 256°
2026-05-07 16:14 51.99602 5.77838 13877 ft 406 kts 256°
2026-05-07 16:14 51.98901 5.73418 13617 ft 404 kts 256°
2026-05-07 16:14 51.98201 5.69011 13348 ft 403 kts 256°
2026-05-07 16:14 51.97503 5.64624 13079 ft 401 kts 255°
2026-05-07 16:15 51.96804 5.60251 12817 ft 400 kts 255°
2026-05-07 16:15 51.96103 5.55886 12552 ft 398 kts 255°
2026-05-07 16:15 51.95405 5.51548 12288 ft 397 kts 255°
2026-05-07 16:15 51.94710 5.47234 12025 ft 395 kts 255°
2026-05-07 16:16 51.94027 5.43012 11799 ft 394 kts 255°
2026-05-07 16:16 51.93316 5.38638 11532 ft 393 kts 255°
2026-05-07 16:16 51.92624 5.34370 11278 ft 391 kts 255°
2026-05-07 16:16 51.91933 5.30117 11035 ft 390 kts 255°
2026-05-07 16:17 51.91241 5.25890 10788 ft 388 kts 255°
2026-05-07 16:17 51.90546 5.21670 10543 ft 387 kts 255°
2026-05-07 16:17 51.89855 5.17464 10304 ft 385 kts 255°
2026-05-07 16:17 51.89181 5.13360 10059 ft 370 kts 255°
2026-05-07 16:18 51.88537 5.09434 9901 ft 353 kts 255°
2026-05-07 16:18 51.87920 5.05685 9768 ft 336 kts 255°
2026-05-07 16:18 51.87331 5.02119 9638 ft 317 kts 255°
2026-05-07 16:18 51.86777 4.98783 9496 ft 298 kts 255°
2026-05-07 16:19 51.86256 4.95644 9365 ft 284 kts 254°
2026-05-07 16:19 51.85742 4.92570 9229 ft 282 kts 254°
2026-05-07 16:19 51.85233 4.89536 9098 ft 280 kts 254°
2026-05-07 16:19 51.84886 4.87462 9014 ft 280 kts 254°
2026-05-07 16:20 51.84349 4.84279 8873 ft 280 kts 254°
2026-05-07 16:20 51.83840 4.81247 8739 ft 280 kts 254°
2026-05-07 16:20 51.83330 4.78220 8617 ft 279 kts 254°
2026-05-07 16:20 51.82813 4.75145 8477 ft 282 kts 254°
2026-05-07 16:21 51.82289 4.72042 8352 ft 294 kts 254°
2026-05-07 16:21 51.81744 4.68822 8233 ft 292 kts 254°
2026-05-07 16:21 51.81211 4.65666 8089 ft 290 kts 254°
2026-05-07 16:21 51.80688 4.62568 7968 ft 289 kts 254°
2026-05-07 16:22 51.80155 4.59406 7839 ft 289 kts 254°
2026-05-07 16:22 51.79626 4.56288 7708 ft 282 kts 254°
2026-05-07 16:22 51.79108 4.53268 7584 ft 278 kts 254°
2026-05-07 16:22 51.78587 4.50241 7459 ft 277 kts 254°
2026-05-07 16:23 51.78077 4.47266 7332 ft 277 kts 254°
2026-05-07 16:23 51.77565 4.44265 7205 ft 277 kts 254°
2026-05-07 16:23 51.77051 4.41281 7085 ft 276 kts 254°
2026-05-07 16:23 51.76583 4.38309 6847 ft 266 kts 261°
2026-05-07 16:24 51.76753 4.35471 6622 ft 247 kts 292°
2026-05-07 16:24 51.77638 4.33255 6495 ft 227 kts 320°
2026-05-07 16:24 51.78914 4.31852 6240 ft 220 kts 331°
2026-05-07 16:24 51.80241 4.30656 5882 ft 218 kts 333°
2026-05-07 16:25 51.81568 4.29486 5530 ft 216 kts 333°
2026-05-07 16:25 51.82895 4.28313 4978 ft 223 kts 333°
2026-05-07 16:25 51.84288 4.27068 4265 ft 233 kts 333°
2026-05-07 16:25 51.85768 4.26194 3787 ft 220 kts
2026-05-07 16:26 51.87240 4.26556 3184 ft 210 kts 21°
2026-05-07 16:26 51.88499 4.27630 2573 ft 198 kts 37°
2026-05-07 16:26 51.89488 4.29062 2208 ft 186 kts 49°
2026-05-07 16:26 51.90017 4.30088 2068 ft 179 kts 52°
2026-05-07 16:27 51.90958 4.32225 1729 ft 166 kts 58°
2026-05-07 16:27 51.91565 4.33750 1507 ft 154 kts 57°
2026-05-07 16:27 51.92111 4.35120 1265 ft 140 kts 56°
2026-05-07 16:27 51.92630 4.36401 1082 ft 134 kts 55°
2026-05-07 16:28 51.93142 4.37681 861 ft 133 kts 54°
2026-05-07 16:28 51.93645 4.38946 676 ft 138 kts 54°
2026-05-07 16:28 51.94162 4.40233 436 ft 137 kts 53°
2026-05-07 16:28 51.94693 4.41550 229 ft 137 kts 53°
2026-05-07 16:29 51.95195 4.42792 67 ft 132 kts 53°
2026-05-07 16:29 51.95681 4.43982 -4 ft 112 kts 59°
2026-05-07 16:29 51.95968 4.44723 -5 ft 32 kts 57°
2026-05-07 16:29 51.96096 4.45040 -5 ft 34 kts 57°
2026-05-07 16:30 51.96140 4.45318 -5 ft 13 kts 120°
2026-05-07 16:30 51.96073 4.45392 -5 ft 11 kts 177°
2026-05-07 16:30 51.96014 4.45328 -5 ft 10 kts 236°
2026-05-07 16:30 51.95975 4.45228 -5 ft 14 kts 237°
2026-05-07 16:31 51.95921 4.45096 -5 ft 17 kts 237°
2026-05-07 16:31 51.95848 4.44912 -5 ft 21 kts 237°
2026-05-07 16:31 51.95774 4.44727 -5 ft 17 kts 237°
2026-05-07 16:31 51.95702 4.44544 -5 ft 23 kts 237°
2026-05-07 16:32 51.95614 4.44330 -5 ft 23 kts 237°
2026-05-07 16:32 51.95538 4.44130 -5 ft 18 kts 240°
2026-05-07 16:32 51.95470 4.43959 -5 ft 18 kts 234°
2026-05-07 16:32 51.95388 4.43766 -5 ft 22 kts 237°
2026-05-07 16:33 51.95302 4.43547 -5 ft 17 kts 237°
2026-05-07 16:33 51.95240 4.43450 -5 ft 11 kts 182°
2026-05-07 16:33 51.95173 4.43483 -5 ft 9 kts 192°
2026-05-07 16:33 51.95126 4.43474 -6 ft 6 kts 155°
2026-05-07 16:34 51.95105 4.43493 -6 ft 2 kts 150°
2026-05-07 16:34 51.95069 4.43507 -6 ft 6 kts 195°
2026-05-07 16:34 51.95062 4.43464 -6 ft 3 kts 295°
2026-05-07 16:34 51.95075 4.43444 -6 ft 2 kts 324°
2026-05-07 16:35 51.95083 4.43434 -6 ft 2 kts 324°
2026-05-07 16:35 51.95090 4.43427 -6 ft 2 kts 326°
2026-05-07 16:35 51.95091 4.43426 -6 ft 0 kts 326°